Regional Weather Roundup
Issued by NWS New Orleans/Baton Rouge, LA

Home | Current Version | Previous Version | Graphics & Text | Print | Product List | Glossary On
Versions: 1 2 3 4 5 6 7 8 9 10 11 12 13 14 15 16 17 18 19 20 21 22 23 24 25 26 27 28 29 30 31 32 33 34 35 36 37 38 39 40 41 42 43 44 45 46 47 48 49 50
309
ASUS44 KLIX 030510
RWRLIX
NEW ORLEANS REGIONAL WEATHER ROUNDUP
NATIONAL WEATHER SERVICE NEW ORLEANS LA
1100 PM CST MON MAR 02 2015

NOTE: "FAIR" INDICATES FEW OR NO CLOUDS BELOW 12,000 FEET WITH NO
      SIGNIFICANT WEATHER AND/OR OBSTRUCTIONS TO VISIBILITY.
      SKY/WX - SKY CONDITION AND SIGNIFICANT WEATHER.
      TMP - AIR TEMPERATURE.     DP    - DEWPOINT TEMPERATURE.
      RH  - RELATIVE HUMIDITY.   PRES  - PRESSURE.
      HI  - HEAT INDEX.          WCI   - WIND CHILL INDEX.

*  THESE STATIONS ARE NOT NWS OR FAA STATIONS AND ARE NOT UNDER
   NWS QUALITY CONTROL.

LAZ038-040-048-061>063-065>067-069-030600-
SOUTHEAST LOUISIANA

CITY           SKY/WX    TMP DP  RH WIND       PRES   REMARKS
N.O. AUDUBON   NOT AVBL
N.O. INTL ARPT FOG       68  66  93 S6        30.19F VSB 3/4
N.O. LAKEFRONT CLOUDY    63  59  87 CALM      30.20S
SLIDELL        FOG       66  65  96 E3        30.20S VSB 1
BATON ROUGE    FOG       56  56 100 CALM      30.20F VSB 1/4
BOOTHVILLE     FOG       65  65 100 SE3       30.20F VSB 1/4
BELLE CHASSE   LGT RAIN  65  63  93 CALM      30.19S VSB 3/4
BOGALUSA*      FOG       65  62  91 CALM      30.22S VSB 1/4
GALLIANO*        N/A     61  61  98 CALM      30.20S FOG
NEW ROADS*     FOG       49  49  99 NW3       30.21F VSB 1/4
GONZALES*      CLOUDY    66  66 100 CALM      30.19F FOG
HAMMOND*       NOT AVBL
HOUMA*         FOG       67  67 100 CALM      30.19F VSB 1/4
PORT FOURCHON* CLEAR     68  68 100 SE5       30.22F FOG

$$

MSZ070-080>082-030600-
SOUTHERN MISSISSIPPI

CITY           SKY/WX    TMP DP  RH WIND       PRES   REMARKS
MCCOMB         FOG       61  61 100 CALM      30.20F VSB 1
GULFPORT       FOG       64  63  96 SE5       30.20F VSB 1/4
BILOXI           N/A     64  64 100 SE2       30.20F FOG
PASCAGOULA     FOG       64  63  96 S5        30.21F VSB 1/4

$$

COASTAL OBSERVATIONS
LAKE AND NEARSHORE STATIONS

STATION/POSITION TIME  TEMP    WIND        PRES    WAVE
                       AIR SEA DIR/SP/G            HT/PER
                 (UTC) (F)     (DEG/KT/KT) (MB)    (FT/S)
PASCAGOULA       0500   63                   N/A
WAVELAND YACHT   0500   63 55                N/A
GRAND ISLE       0500   67 61                N/A
SOUTHWEST PASS   0500   61 47                N/A
NEW CANAL        0500   62                   N/A
SHELL BEACH      0500   64 57                N/A

OFFSHORE STATIONS

STATION/POSITION TIME  TEMP    WIND        PRES    WAVE
                       AIR SEA DIR/SP/G            HT/PER
                 (UTC) (F)     (DEG/KT/KT) (MB)    (FT/S)
64 S DAUPHIN ISL 0450   70 71  140/ 10/ 12 1023.3    2/ 6

$$




USA.gov is the U.S. government's official web portal to all federal, state and local government web resources and services.